Location: Rowland
(34.5359°N, 79.2929°W)
Time: 18:31:14
(UTC+00:00)

Transit 2A Rocket - Pass Details

Date: 06 October 2022
Orbit: 589 x 911 km, 66.7° (Epoch: 02 December)

Event Time Altitude Azimuth Distance (km) Brightness Sun altitude
Rises 09:54:56 0° 212° (SSW) 2,859 - -17.4°
Reaches altitude 10° 09:57:13 10° 215° (SW) 1,935 - -16.9°
Exits shadow 09:58:41 21° 219° (SW) 1,363 5.9 -16.6°
Maximum altitude 10:01:29 66° 298° (WNW) 646 4.4 -16.1°
Drops below altitude 10° 10:05:44 10° 21° (NNE) 1,923 7.4 -15.2°
Sets 10:08:01 0° 24° (NNE) 2,841 8.3 -14.7°
